User: anonymous   Login
Location: Houston
(29.7630°N, 95.3630°W)
Time: 23:46:13
(UTC-05:00)
Language:

Saudisat 1A - Orbit

View from above orbital plane
View from above orbital plane
View from above satellite
View from above satellite

Ground track
Ground track

The orbit data is extracted from the following two-line orbital elements,

1 26546U 00057B   15242.43944038  .00000661  00000-0  84453-4 0  9995
2 26546 064.5534 229.9200 0037463 305.1789 054.5813 14.89681248808791
Epoch (UTC): 30 August 2015 10:32:47
Eccentricity: 0.0037463
inclination: 64.5534°
perigee height: 573 km
apogee height: 625 km
right ascension of ascending node: 229.9200°
argument of perigee: 305.1789°
revolutions per day: 14.89681248
mean anomaly at epoch: 54.5813°
orbit number at epoch: 80879

The dashed part of the orbit path shows where the satellite is in the earth's shadow,  

DLR